Tracking 22779 objects as of 12-Apr-2021
HD Live streaming from Space Station
objects crossing your sky now

WESTFORD NEEDLES

Track WESTFORD NEEDLES now!
10-day predictions
WESTFORD NEEDLES is classified as:


NORAD ID: 19059
Int'l Code: 1963-014EG
Perigee: 3,553.4 km
Apogee: 3,730.4 km
Inclination: 87.4 °
Period: 166.2 minutes
Semi major axis: 10012 km
RCS: 0.205 m2 (medium)
Launch date: May 9, 1963
Source: United States (US)
Launch site: AIR FORCE WESTERN TEST RANGE (AFWTR)
aabbcc
Your satellite tracking list
Your tracking list is empty




NASA's NSSDC Master Catalog

Two Line Element Set (TLE):
1 19059U 63014EG  21099.15860880  .00000638  00000-0  29288+0 0  9990
2 19059  87.3548   8.8394 0088348 165.0435 195.3061  8.66490333 49626
Source of the keplerian elements: AFSPC